Date String (YYYY-MM-DD hh:mm:ss) UTC,Instrument flags,Ambient pressure (hPa),Sample flow (lpm),Bypass flow (lpm),Sample temperature (°C),Ambient temperature (°C),ASC tube jacket temperature (°C),LED temperature (°C),Box temperature (°C),Sample RH (%),Span deviation,Mass concentration (μg/m³),Mass concentration (μg/m³),Mass concentration (μg/m³)
DateTimeUTC,F1_M11,P_M11,Q1_M11,Q2_M11,T1_M11,T2_M11,T3_M11,T4_M11,T5_M11,U1_M11,ZSPAN_M11,X0_M11,X2_M11,X1_M11
2021-10-21 07:00:00,,0831.2,5.00,0.00,26.4,25.5,00.0,35.6,28.2,13.6,0000.0,0017.13,0004.47,0003.57
2021-10-21 07:01:00,,0831.2,4.99,0.00,26.4,25.5,00.0,35.6,28.2,13.6,0000.0,0016.57,0004.49,0003.57
2021-10-21 07:02:00,,0831.1,5.00,0.00,26.4,25.5,00.0,35.6,28.2,13.6,0000.0,0016.60,0004.51,0003.57
2021-10-21 07:03:00,,0831.1,5.00,0.00,26.4,25.5,00.0,35.5,28.2,13.6,0000.0,0015.56,0004.51,0003.57
2021-10-21 07:04:00,,0831.1,4.99,0.00,26.4,25.5,00.0,35.5,28.2,13.7,0000.0,0014.88,0004.50,0003.56
2021-10-21 07:05:00,,0831.1,5.01,0.00,26.4,25.5,00.0,35.5,28.2,13.7,0000.0,0014.93,0004.51,0003.55
2021-10-21 07:06:00,,0831.1,5.01,0.00,26.4,25.5,00.0,35.5,28.1,13.7,0000.0,0013.71,0004.53,0003.55
2021-10-21 07:07:00,,0831.1,5.00,0.00,26.4,25.5,00.0,35.5,28.1,13.7,0000.0,0013.44,0004.54,0003.55
2021-10-21 07:08:00,,0831.1,4.99,0.00,26.4,25.5,00.0,35.5,28.1,13.7,0000.0,0012.62,0004.53,0003.55
2021-10-21 07:09:00,,0831.1,5.00,0.00,26.4,25.5,00.0,35.5,28.1,13.7,0000.0,0012.23,0004.53,0003.53
2021-10-21 07:10:00,,0831.0,5.00,0.00,26.4,25.5,00.0,35.5,28.1,13.7,0000.0,0011.97,0004.50,0003.52
2021-10-21 07:11:00,,0831.0,5.00,0.00,26.4,25.4,00.0,35.5,28.1,13.6,0000.0,0012.95,0004.49,0003.52
2021-10-21 07:12:00,,0831.0,5.01,0.00,26.4,25.4,00.0,35.5,28.1,13.7,0000.0,0013.84,0004.45,0003.50
2021-10-21 07:13:00,,0831.0,5.00,0.00,26.4,25.4,00.0,35.5,28.1,13.8,0000.0,0013.24,0004.39,0003.49
2021-10-21 07:14:00,,0831.1,5.00,0.00,26.4,25.4,00.0,35.5,28.2,13.8,0000.0,0013.02,0004.36,0003.48
2021-10-21 07:15:00,,0831.2,5.01,0.00,26.3,25.4,00.0,35.5,28.1,13.8,0000.0,0013.15,0004.37,0003.47
2021-10-21 07:16:00,,0831.2,4.99,0.00,26.3,25.4,00.0,35.5,28.1,13.7,0000.0,0013.24,0004.33,0003.46
2021-10-21 07:17:00,,0831.2,4.99,0.00,26.3,25.4,00.0,35.5,28.1,13.7,0000.0,0013.35,0004.27,0003.45
2021-10-21 07:18:00,,0831.2,5.01,0.00,26.3,25.4,00.0,35.5,28.1,13.7,0000.0,0012.46,0004.25,0003.44
2021-10-21 07:19:00,,0831.2,4.99,0.00,26.3,25.4,00.0,35.5,28.1,13.8,0000.0,0012.13,0004.21,0003.44
2021-10-21 07:20:00,,0831.2,5.00,0.00,26.3,25.4,00.0,35.4,28.1,13.8,0000.0,0013.25,0004.18,0003.43
2021-10-21 07:21:00,,0831.2,4.99,0.00,26.3,25.4,00.0,35.4,28.1,13.8,0000.0,0014.76,0004.19,0003.42
2021-10-21 07:22:00,,0831.2,5.01,0.00,26.3,25.4,00.0,35.4,28.1,13.8,0000.0,0013.99,0004.17,0003.41
2021-10-21 07:23:00,,0831.2,5.00,0.00,26.3,25.4,00.0,35.4,28.1,13.8,0000.0,0012.62,0004.17,0003.40
2021-10-21 07:24:00,,0831.2,4.99,0.00,26.3,25.4,00.0,35.4,28.1,13.8,0000.0,0013.26,0004.20,0003.40
2021-10-21 07:25:00,,0831.2,5.01,0.00,26.3,25.4,00.0,35.4,28.1,13.8,0000.0,0013.87,0004.24,0003.39
2021-10-21 07:26:00,,0831.2,5.00,0.00,26.3,25.4,00.0,35.4,28.1,13.8,0000.0,0013.74,0004.23,0003.39
2021-10-21 07:27:00,,0831.2,4.99,0.00,26.3,25.4,00.0,35.4,28.1,13.9,0000.0,0014.30,0004.23,0003.39
2021-10-21 07:28:00,,0831.1,5.01,0.00,26.3,25.4,00.0,35.4,28.1,14.0,0000.0,0014.05,0004.26,0003.39
2021-10-21 07:29:00,,0831.2,5.00,0.00,26.3,25.4,00.0,35.4,28.1,14.0,0000.0,0014.49,0004.26,0003.38
2021-10-21 07:30:00,,0831.2,5.01,0.00,26.3,25.4,00.0,35.4,28.1,14.0,0000.0,0014.64,0004.28,0003.39
2021-10-21 07:31:00,,0831.2,5.00,0.00,26.3,25.4,00.0,35.4,28.1,14.1,0000.0,0013.57,0004.30,0003.39
2021-10-21 07:32:00,,0831.2,5.00,0.00,26.3,25.4,00.0,35.4,28.1,14.1,0000.0,0011.99,0004.31,0003.39
2021-10-21 07:33:00,,0831.1,5.00,0.00,26.3,25.4,00.0,35.4,28.1,14.1,0000.0,0011.65,0004.26,0003.38
2021-10-21 07:34:00,,0831.2,4.99,0.00,26.3,25.4,00.0,35.4,28.1,14.1,0000.0,0011.65,0004.26,0003.37
2021-10-21 07:35:00,,0831.2,5.00,0.00,26.3,25.4,00.0,35.4,28.1,14.1,0000.0,0011.50,0004.21,0003.36
2021-10-21 07:36:00,,0831.2,5.01,0.00,26.3,25.4,00.0,35.4,28.1,14.1,0000.0,0011.55,0004.15,0003.35
2021-10-21 07:37:00,,0831.2,5.01,0.00,26.3,25.4,00.0,35.4,28.1,14.1,0000.0,0011.61,0004.10,0003.34
2021-10-21 07:38:00,,0831.2,4.99,0.00,26.3,25.4,00.0,35.4,28.1,14.0,0000.0,0011.33,0004.08,0003.35
2021-10-21 07:39:00,,0831.2,4.99,0.00,26.3,25.4,00.0,35.4,28.1,14.1,0000.0,0011.27,0004.04,0003.35
2021-10-21 07:40:00,,0831.2,5.00,0.00,26.3,25.4,00.0,35.4,28.1,14.0,0000.0,0010.99,0004.05,0003.36
2021-10-21 07:41:00,,0831.2,5.00,0.00,26.3,25.5,00.0,35.4,28.1,14.0,0000.0,0010.56,0004.07,0003.36
2021-10-21 07:42:00,,0831.2,5.00,0.00,26.3,25.5,00.0,35.4,28.1,14.0,0000.0,0010.27,0004.05,0003.35
2021-10-21 07:43:00,,0831.2,4.99,0.00,26.3,25.5,00.0,35.4,28.1,14.1,0000.0,0010.30,0004.01,0003.34
2021-10-21 07:44:00,,0831.2,5.01,0.00,26.3,25.4,00.0,35.4,28.1,14.1,0000.0,0010.37,0004.01,0003.34
2021-10-21 07:45:00,,0831.2,5.01,0.00,26.3,25.4,00.0,35.4,28.1,14.1,0000.0,0010.42,0004.01,0003.35
2021-10-21 07:46:00,,0831.2,4.99,0.00,26.3,25.4,00.0,35.4,28.2,14.1,0000.0,0010.10,0004.01,0003.36
2021-10-21 07:47:00,,0831.1,5.00,0.00,26.3,25.4,00.0,35.4,28.1,14.0,0000.0,0009.24,0004.00,0003.36
2021-10-21 07:48:00,,0831.2,5.01,0.00,26.3,25.4,00.0,35.4,28.1,14.0,0000.0,0009.59,0004.01,0003.35
2021-10-21 07:49:00,,0831.2,5.00,0.00,26.3,25.4,00.0,35.4,28.1,14.0,0000.0,0009.36,0004.04,0003.36
2021-10-21 07:50:00,,0831.2,4.99,0.00,26.3,25.4,00.0,35.4,28.1,14.0,0000.0,0009.92,0004.06,0003.36
2021-10-21 07:51:00,,0831.2,5.00,0.00,26.3,25.4,00.0,35.4,28.1,14.0,0000.0,0010.28,0004.04,0003.36
2021-10-21 07:52:00,,0831.2,4.99,0.00,26.3,25.4,00.0,35.4,28.1,14.1,0000.0,0010.67,0004.00,0003.36
2021-10-21 07:53:00,,0831.2,4.99,0.00,26.3,25.4,00.0,35.4,28.1,14.1,0000.0,0010.71,0004.01,0003.38
2021-10-21 07:54:00,,0831.2,5.01,0.00,26.3,25.4,00.0,35.4,28.1,14.1,0000.0,0010.88,0004.04,0003.39
2021-10-21 07:55:00,,0831.2,5.00,0.00,26.3,25.4,00.0,35.4,28.1,14.1,0000.0,0011.01,0004.07,0003.40
2021-10-21 07:56:00,,0831.2,4.99,0.00,26.3,25.4,00.0,35.4,28.0,14.1,0000.0,0011.74,0004.10,0003.41
2021-10-21 07:57:00,,0831.2,5.01,0.00,26.2,25.4,00.0,35.4,28.0,14.0,0000.0,0012.62,0004.13,0003.39
2021-10-21 07:58:00,,0831.2,5.00,0.00,26.2,25.4,00.0,35.4,28.0,14.1,0001.1,0013.19,0004.14,0003.40
2021-10-21 07:59:00,,0831.2,5.01,0.00,26.2,25.4,00.0,35.3,28.0,14.1,0001.2,0012.89,0004.17,0003.41
